This demonstration page uses our WeatherBlox Daily Observations layout. Learn more.

39.92423, -83.80882

Hourly Observations for May 5, 2016

Temp ( °F °C ) Dew Point ( °F °C ) Humidity (%) Winds ( mph kmh ) Pressure ( in mb ) Visibility ( mi km ) Precip ( " mm )
12:56 am 00:56 Mostly Cloudy 42 5.5 36 2.2 80 80 NW 5 7 29.75 1007 10 16.0934 0 0
1:56 am 01:56 Cloudy 43 6.1 37 2.7 79 79 NW 6 9 29.74 1007 10 16.0934 0 0
2:56 am 02:56 Cloudy 42 5.5 37 2.7 82 82 NNW 6 9 29.73 1007 10 16.0934 0 0
3:56 am 03:56 Cloudy 42 5.5 36 2.2 80 80 NW 7 11 29.72 1007 10 16.0934 0 0
4:56 am 04:56 Cloudy 41 5 35 1.6 79 79 NW 7 11 29.73 1007 10 16.0934 0 0
5:17 am 05:17 Mostly Cloudy 39 4 37 3 93 93 N 9 15 29.77 1008 10 16.0934 0 0
5:56 am 05:56 Cloudy 40 4.4 39 3.8 96 96 N 7 11 29.75 1008 10 16.0934 0 0
6:56 am 06:56 Cloudy 41 5 38 3.3 89 89 N 7 11 29.78 1008 10 16.0934 0 0
7:56 am 07:56 Sunny 42 5.5 39 3.8 89 89 N 9 15 29.8 1009 10 16.0934 0 0
8:56 am 08:56 Cloudy 44 6.6 40 4.4 86 86 NW 6 9 29.82 1010 10 16.0934 0 0
9:14 am 09:14 Cloudy 45 7 39 4 81 81 NW 6 9 29.83 1010 10 16.0934 0 0
9:56 am 09:56 Cloudy 45 7.2 40 4.4 83 83 WNW 8 13 29.83 1010 10 16.0934 0 0
10:23 am 10:23 Cloudy with Mist and Fog 45 7 43 6 93 93 WNW 7 11 29.85 1011 3 4.82802 0 0
10:31 am 10:31 Cloudy with Mist and Fog 45 7 43 6 93 93 NW 7 11 29.85 1011 2.5 4.02335 0 0
10:36 am 10:36 Cloudy with Mist and Fog 45 7 45 7 100 100 WNW 8 13 29.85 1011 3 4.82802 0 0
10:56 am 10:56 Cloudy 45 7.2 43 6.1 93 93 WNW 10 17 29.85 1011 10 16.0934 0 0
11:56 am 11:56 Cloudy 46 7.7 45 7.2 97 97 WNW 10 17 29.85 1011 10 16.0934 0 0.0254
12:56 pm 12:56 Cloudy 49 9.4 46 7.7 89 89 NW 10 17 29.85 1011 10 16.0934 0 0
1:24 pm 13:24 Cloudy 50 10 46 8 88 88 WNW 9 15 29.83 1010 10 16.0934 0 0
1:56 pm 13:56 Cloudy 50 10 47 8.3 89 89 NW 8 13 29.85 1011 8 12.87472 0 0
2:30 pm 14:30 Cloudy 52 11 46 8 82 82 NW 7 11 29.85 1011 10 16.0934 0 0
2:56 pm 14:56 Cloudy 53 11.6 48 8.8 83 83 N 10 17 29.86 1011 10 16.0934 0 0
3:56 pm 15:56 Partly Cloudy 59 15 50 10 72 72 N 16 26 29.84 1011 10 16.0934 0 0
4:56 pm 16:56 Mostly Cloudy 62 16.6 46 7.7 56 56 NNE 17 28 29.84 1011 10 16.0934 0 0
5:56 pm 17:56 Mostly Sunny 62 16.6 44 6.6 52 52 N 16 26 29.84 1011 10 16.0934 0 0
6:56 pm 18:56 Sunny 63 17.2 35 1.6 35 35 N 17 28 29.84 1010 10 16.0934 0 0
7:56 pm 19:56 Sunny 59 15 38 3.3 46 46 N 13 20 29.86 1011 10 16.0934 0 0
8:56 pm 20:56 Clear 53 11.6 40 4.4 62 62 N 7 11 29.87 1012 10 16.0934 0 0
9:56 pm 21:56 Clear 52 11.1 40 4.4 64 64 NNW 6 9 29.89 1012 10 16.0934 0 0
10:56 pm 22:56 Mostly Clear 50 10 41 5 71 71 NNW 6 9 29.91 1013 10 16.0934 0 0
11:56 pm 23:56 Clear 49 9.4 39 3.8 68 68 NNW 7 11 29.91 1013 10 16.0934 0 0

Powered by AerisWeather